Ana Sayfa
METAR-TAF:

METAR-TAF

Havaalanları :

Colonel James Jabara Airport

Wichita, Kansas, Amerika Birleşik Devletleri

Enlem: 37-44-59N, Boylam: 097-13-08W, yükseklik: 432 m

Güncel hava durumu gözlemi

Rapor saat 16:54 UTC de 31 dakika önce yapıldı.
Rüzgar değişken yönden 3 kt
Sıcaklık 27°C
Nem 54%
Basınç 1012 hPa
Görüş mesafesi: 16.1 km
Açık gökyüzü

METAR: KAAO 181654Z AUTO VRB03KT 10SM CLR 27/17 A2987 RMK AO2 SLP103 T02720167

Saat: 12:25 (17:25 UTC)


TAF: eksik

4.000'den fazla havaalanı için hava durumu gözlemleri ve tahminleri (METAR ve TAF raporları).

Kullanılabilir istasyonlar harita üzerinde sarı ve kırmızı noktalarla gösterilir.

İstasyonun adını görmek için fareyi noktanın üzerinde gezdirin.

Sonrasında hava gözlem ve tahminlerini görmek için tıklayın.

Haritayı değiştirmek için: yaklaştırmak için siyah artı işaretli yeşil düğmeye ve uzaklaştırmak için de eksi işaretli düğmeye hızla tıklayın; bitişik haritalar için yeşil okları kullanın.


METAR-TAF: